RH
35 37 37 41 42 35 25 16 15 18 18 22 20 13 32 59 53 41 34 14 4 9 6 8 14 6 7 24 37 40 36 29 24 20 19 22 21 22 24 25 27 28 29 32 32 35 44 46 44 48 45 38 41 45 42 40 40 40 41 36 31 29 27 29 37 43 45 48 47 44 44 41 35 42 49 50 50 45 41 42 42 46 52 51 65 90 101
37 38 40 42 38 26 15 12 14 13 15 16 11 22 56 70 49 29 19 10 9 8 4 8 7 -1 16 40 44 39 36 30 25 22 20 22 22 21 23 24 26 28 28 30 32 35 40 41 42 45 44 43 47 47 42 41 41 41 43 41 35 35 34 32 44 52 45 46 51 47 45 44 44 52 54 53 58 55 49 46 42 49 55 51 65 95 103
39 40 41 38 29 17 11 13 14 12 16 12 8 42 83 78 56 48 32 11 7 9 9 8 2 8 36 53 44 37 36 34 34 31 27 26 22 20 26 26 24 27 29 29 31 35 37 38 40 41 43 53 60 54 45 43 44 44 45 45 41 41 39 35 48 63 58 57 64 59 52 52 55 62 61 59 60 56 54 50 43 53 60 51 61 91 103
38 36 35 30 20 15 13 14 15 13 15 8 11 58 94 77 65 67 38 8 12 24 25 19 19 33 52 54 43 38 36 37 39 35 30 30 25 24 29 28 24 26 28 29 33 34 35 39 44 44 45 55 61 58 52 46 46 48 50 51 47 45 47 43 44 58 64 66 68 63 58 57 58 59 59 61 61 58 57 53 47 53 61 64 71 82 94
30 26 26 22 17 16 14 14 15 14 15 9 18 61 88 76 68 56 23 13 36 47 42 43 48 53 54 48 44 43 38 37 40 35 30 31 28 28 31 28 25 26 26 30 36 37 35 41 49 51 49 53 56 57 55 48 49 54 56 57 52 47 55 59 55 60 67 67 66 63 58 55 56 58 60 63 64 65 62 55 54 56 63 84 98 86 82
20 18 20 19 17 16 14 15 16 15 15 10 23 62 86 78 60 34 16 36 65 66 57 59 59 54 49 47 46 46 40 36 37 36 33 32 30 30 30 26 27 28 27 29 36 40 42 47 55 56 51 52 54 55 53 51 52 53 53 56 55 52 60 68 66 67 69 69 71 68 60 57 60 66 73 75 74 73 68 61 63 64 62 80 99 90 81
15 16 17 17 17 15 15 17 16 18 13 9 34 75 85 66 43 28 35 61 77 72 64 60 57 52 49 47 47 47 43 37 36 35 32 33 34 32 29 27 29 30 27 28 33 41 48 55 60 61 58 56 55 52 50 49 51 51 50 53 53 56 67 74 70 69 71 73 76 75 69 67 70 75 84 87 81 77 78 80 82 79 75 80 90 93 92
13 15 15 16 16 16 17 16 16 16 9 16 57 89 78 53 42 45 62 76 75 71 65 58 56 54 49 48 48 47 44 40 38 36 33 33 34 33 33 34 34 33 29 29 36 44 49 53 56 57 57 56 52 48 47 47 48 50 52 53 50 52 66 74 68 69 79 78 71 72 75 73 76 84 93 95 90 86 91 98 98 94 94 95 96 98 99
13 14 16 17 17 16 15 14 15 11 7 33 78 90 67 52 54 63 74 77 70 66 62 59 58 53 48 48 48 46 45 44 43 43 41 37 34 36 41 42 40 39 34 32 40 49 51 50 50 49 50 51 47 44 46 47 46 45 48 54 52 51 63 69 62 71 91 86 70 72 77 74 78 88 95 94 89 86 89 93 94 96 100 100 99 100 100
14 16 18 17 15 15 12 12 13 6 13 54 91 89 68 60 64 72 75 72 67 64 62 59 55 50 47 47 48 47 46 45 44 44 44 43 41 44 48 47 44 44 41 37 41 49 49 46 46 46 45 45 44 42 45 49 45 38 40 48 50 49 59 65 62 77 96 90 76 77 78 78 86 93 95 93 86 83 84 83 84 94 99 98 98 99 100
15 18 18 15 13 13 11 11 9 6 29 75 97 88 78 74 73 74 71 66 64 62 58 54 50 49 47 46 49 49 46 45 44 42 43 45 45 47 49 48 46 47 48 47 47 48 47 46 47 47 43 41 41 41 43 45 40 34 37 46 46 44 50 58 62 77 95 94 86 84 83 88 97 98 98 99 95 93 93 90 90 97 100 98 98 99 100
17 17 15 13 12 12 10 10 7 12 45 87 97 87 83 81 75 69 62 58 58 55 50 47 47 48 47 46 48 47 44 44 43 41 42 44 43 44 47 47 46 46 49 52 52 50 49 49 47 44 42 42 41 39 38 38 36 36 41 46 47 44 46 52 59 71 88 96 90 87 92 98 100 99 99 100 98 97 96 95 96 99 99 99 99 98 100
18 16 13 12 12 10 9 9 12 28 59 88 94 86 83 79 70 62 56 52 53 51 48 47 48 47 46 45 46 44 43 43 41 39 40 40 38 37 42 45 45 44 45 48 50 48 46 47 44 40 42 44 40 39 44 46 45 45 46 46 48 49 47 50 59 69 83 92 85 85 97 102 98 99 101 98 98 98 95 93 97 100 99 99 99 99 100
17 14 12 12 11 10 8 8 24 54 77 87 90 87 82 76 67 59 54 51 50 49 46 45 46 45 44 44 43 42 42 42 43 41 36 34 33 31 36 41 39 35 34 36 41 43 43 45 43 40 43 46 45 48 56 59 57 54 52 50 50 51 50 53 60 66 76 88 90 91 99 101 98 100 101 98 99 100 96 92 96 100 100 99 98 97 97
15 12 12 12 9 10 8 7 32 69 84 84 88 85 77 72 65 57 52 48 45 45 45 45 46 45 44 41 38 34 31 32 42 43 33 31 35 34 32 32 29 32 37 39 41 42 43 46 46 45 47 50 54 58 61 63 62 58 55 54 52 50 51 52 58 65 71 81 94 100 99 98 99 100 100 100 100 99 97 96 98 99 99 98 97 94 91
14 11 12 11 9 10 7 9 40 74 82 82 87 81 71 71 66 56 50 46 44 45 47 46 45 45 44 41 38 35 32 34 41 41 35 36 42 41 39 38 40 45 49 46 44 45 47 47 47 51 55 56 58 62 64 66 67 63 59 59 55 51 49 47 53 67 71 74 90 102 98 96 100 99 98 99 100 98 97 97 97 96 94 95 96 97 95
15 14 14 11 10 10 6 18 54 78 80 82 84 74 68 69 63 55 51 48 46 48 49 46 42 41 44 47 44 42 42 43 44 41 37 40 46 48 50 52 53 51 49 48 48 49 50 49 49 54 62 63 61 66 70 70 70 69 66 63 58 52 51 50 56 71 74 74 89 102 98 95 99 98 97 99 99 98 98 97 95 90 87 89 93 98 100
18 18 15 11 11 9 7 31 69 80 77 82 79 69 67 66 59 55 54 50 48 48 49 48 41 35 41 49 48 44 45 48 45 41 38 40 45 49 53 57 55 50 50 54 53 51 52 55 55 56 61 63 61 66 73 73 73 73 70 68 65 62 63 64 66 73 75 73 85 99 98 96 98 97 98 100 99 99 99 96 91 85 83 87 92 98 100
20 18 14 10 13 9 7 37 74 78 73 78 75 66 66 64 58 57 56 52 50 48 48 50 45 35 38 48 48 44 45 45 41 39 40 42 46 49 51 55 55 54 55 55 53 54 57 61 61 58 59 62 61 65 74 78 80 79 75 75 76 75 78 79 75 77 78 73 80 94 97 97 99 99 99 101 99 98 95 90 87 83 82 88 96 100 100
18 15 12 10 14 11 7 31 66 72 69 73 72 66 66 64 59 57 55 53 53 49 47 49 44 34 34 43 45 43 43 41 37 38 40 42 47 52 52 51 54 58 59 55 53 57 61 62 61 60 63 66 66 70 78 84 86 84 79 81 82 79 84 89 85 84 85 80 83 92 95 97 100 99 99 100 96 92 89 86 85 83 82 90 99 100 99
14 13 11 10 15 14 8 22 50 64 66 70 68 65 65 63 58 56 54 50 48 49 49 47 39 32 33 40 44 44 43 38 35 38 39 37 44 53 53 51 55 60 58 55 55 58 61 62 60 61 67 69 69 75 82 88 94 92 85 83 83 80 85 91 87 84 83 81 85 90 93 97 100 99 99 96 90 86 84 82 80 79 83 93 99 98 99
14 12 11 12 17 19 14 17 35 54 63 67 65 63 64 62 57 56 50 39 35 40 43 37 27 25 29 33 38 47 51 46 41 41 39 37 45 54 54 53 57 56 54 55 57 57 57 57 55 59 64 62 63 73 81 85 90 91 86 86 86 85 85 86 83 81 79 81 90 95 97 99 99 98 97 92 85 82 79 75 73 74 83 93 95 93 96
17 14 12 15 23 28 23 20 30 47 59 64 62 61 62 60 56 53 42 26 20 23 24 17 12 16 23 27 36 52 59 54 50 49 47 45 47 52 56 56 56 54 53 55 57 53 48 47 48 53 58 58 59 65 75 83 87 86 85 89 91 89 85 80 82 86 87 91 98 100 99 100 98 95 93 87 80 76 73 73 74 75 82 90 91 90 93
22 19 17 19 28 35 32 27 32 46 56 59 58 58 59 57 56 50 33 17 14 15 14 14 12 13 18 25 38 54 58 56 56 57 57 57 51 49 55 58 56 58 58 56 55 50 45 48 50 49 55 64 63 58 64 81 90 89 89 94 98 98 90 81 83 89 91 95 101 100 99 99 96 91 87 82 79 77 77 79 78 76 80 85 86 87 90
28 25 22 21 28 36 37 34 36 44 50 52 52 53 53 53 55 47 27 17 20 20 18 21 20 16 16 22 35 50 56 57 56 52 54 60 54 46 50 53 53 56 57 56 58 55 49 53 53 47 54 67 67 61 68 81 89 90 91 93 96 97 92 84 84 87 90 95 99 96 94 93 90 87 84 81 80 82 83 81 77 74 76 77 79 85 91
32 29 25 23 23 28 34 36 37 40 45 45 44 44 44 45 47 39 24 21 27 24 20 25 28 28 30 33 41 52 56 55 52 46 49 58 52 42 42 43 44 48 51 54 60 57 51 52 51 48 54 63 64 66 73 79 83 86 87 87 88 88 87 86 85 87 94 98 94 88 84 85 86 84 81 77 74 73 74 74 72 69 67 65 68 77 84
32 28 26 25 23 22 26 28 30 32 35 35 34 34 35 35 34 29 22 24 28 25 21 25 31 35 40 42 45 53 55 51 48 47 49 51 44 40 43 44 43 48 51 51 54 54 51 51 50 50 55 58 58 63 68 70 74 76 76 80 80 77 76 77 74 77 84 88 84 78 73 74 80 81 77 75 73 67 62 59 57 54 52 52 53 57 61
29 26 26 27 26 25 25 23 23 24 24 25 26 27 27 25 25 27 28 28 28 25 20 22 27 33 41 45 47 50 50 47 46 47 46 43 37 37 44 48 50 52 50 47 49 50 48 47 48 52 57 53 51 60 67 69 73 76 77 80 75 67 65 63 59 60 63 63 65 67 60 57 68 74 71 69 67 59 52 51 51 50 49 46 42 41 41
24 24 25 25 24 26 25 21 21 21 19 20 22 21 22 26 31 37 36 30 27 23 17 17 23 28 36 46 49 46 46 47 48 46 43 39 34 34 41 50 56 54 49 46 45 43 45 49 51 57 60 53 49 62 74 75 80 89 91 86 80 75 69 57 45 40 41 45 55 60 49 41 48 53 50 49 47 41 38 40 42 41 38 34 31 29 27
20 20 22 22 21 22 21 18 20 21 18 20 25 28 32 37 42 44 40 31 27 23 18 20 25 27 34 47 51 48 47 49 49 45 40 37 37 39 43 46 48 48 46 43 40 41 50 58 58 59 62 55 51 63 72 72 85 101 96 83 84 84 72 56 44 35 33 41 50 48 36 29 31 34 35 36 36 33 31 32 34 36 35 32 31 31 30
18 19 20 21 20 21 20 20 23 25 25 29 36 40 45 48 48 48 43 35 30 28 25 25 25 26 33 46 53 54 53 50 47 42 33 26 31 41 46 42 39 41 40 37 36 42 50 53 52 55 60 56 52 59 59 56 76 101 96 81 83 78 57 48 47 36 28 35 41 38 34 33 32 33 34 36 39 39 34 29 29 32 33 32 31 31 30
17 17 17 18 18 19 20 21 21 22 28 38 45 47 50 52 52 51 47 40 36 37 34 27 25 29 38 47 56 61 57 47 41 36 28 22 25 33 39 37 33 32 32 32 36 45 50 51 53 57 61 58 52 53 51 45 60 88 91 77 71 62 43 40 45 38 31 34 34 31 36 43 40 33 28 30 39 46 44 40 36 34 38 45 48 46 41
17 16 16 16 16 17 20 22 22 22 27 36 44 48 52 53 53 54 53 46 42 42 38 28 24 31 39 42 47 53 51 45 42 39 36 35 31 25 27 31 29 29 32 32 35 44 53 55 54 54 61 61 49 45 49 50 59 81 90 75 62 54 46 46 51 48 47 50 44 35 39 47 44 37 35 45 59 69 72 73 68 63 65 74 78 76 75
17 18 18 18 17 19 21 22 23 26 29 34 42 50 55 55 55 55 52 44 38 36 35 29 26 31 37 39 41 44 45 46 46 42 40 40 34 25 27 34 36 37 39 34 33 42 53 54 45 41 52 59 45 33 41 50 58 76 87 76 59 48 46 50 55 53 51 56 54 45 40 39 37 40 53 70 81 84 83 84 83 82 83 85 84 86 91
17 19 20 20 21 23 26 28 33 39 41 43 47 53 55 56 57 55 50 45 40 36 32 28 25 28 37 45 47 44 42 42 40 35 34 38 36 30 31 35 36 38 40 37 37 44 49 47 37 35 46 54 40 27 31 42 50 60 64 55 44 43 49 58 66 65 61 57 49 39 34 36 43 56 71 80 84 84 83 82 85 89 90 88 86 87 91
16 18 20 23 24 27 33 42 51 57 57 51 46 46 51 55 57 55 52 50 46 38 31 28 28 31 36 42 46 45 43 41 37 34 36 40 40 38 35 33 33 35 38 39 40 42 43 41 36 36 46 50 39 28 30 37 43 48 51 49 53 59 61 58 58 62 62 55 44 40 43 49 58 70 78 80 79 79 80 79 79 83 85 82 80 81 83
16 17 20 22 23 25 31 39 48 59 60 48 37 39 49 57 57 54 53 52 46 39 34 35 37 37 35 37 42 46 46 44 42 42 41 41 44 45 41 35 35 39 43 45 44 44 45 44 39 41 49 49 41 38 41 43 45 49 55 63 72 73 64 52 49 57 63 62 61 66 70 70 73 79 83 80 75 73 77 81 81 81 77 70 67 68 68
16 17 21 23 26 32 38 38 43 54 53 41 36 45 56 58 55 53 54 54 50 47 46 47 46 43 39 39 44 48 47 47 48 48 45 43 47 51 46 40 43 49 52 53 53 53 54 52 47 50 57 58 55 56 58 58 57 59 61 68 74 69 57 49 50 57 64 69 72 76 78 78 80 83 83 80 77 76 78 78 77 75 69 60 58 59 56
15 17 22 24 27 40 50 46 44 48 45 37 43 54 57 52 51 54 57 58 56 55 56 56 54 50 45 43 43 44 46 48 49 49 47 45 47 49 45 43 48 51 51 52 54 55 57 58 56 57 64 69 69 68 67 68 71 72 71 73 72 65 60 61 62 63 67 72 76 79 78 77 78 77 76 77 80 79 75 71 71 72 67 59 55 54 51
13 17 24 23 25 38 48 42 37 38 38 39 48 55 52 49 53 58 59 60 61 61 58 56 54 52 50 46 42 41 44 48 49 48 46 44 44 44 43 43 48 49 48 50 54 54 54 57 59 60 65 70 73 71 70 72 73 75 77 75 67 61 68 76 76 72 71 72 75 80 79 77 75 73 70 74 80 82 80 80 82 79 68 57 53 51 50
12 20 26 24 27 36 40 35 33 38 43 47 54 56 53 54 58 60 59 60 63 62 57 54 53 53 51 47 42 39 41 45 47 45 43 42 42 42 42 43 47 47 47 50 54 53 51 52 55 58 61 67 73 73 71 69 67 70 77 77 65 62 76 86 83 79 77 73 72 74 73 70 69 67 66 71 78 81 81 82 82 75 63 53 49 47 45
20 33 33 27 29 36 35 33 38 46 52 54 56 55 53 55 57 58 57 59 63 62 57 56 57 55 49 46 44 42 44 47 46 42 41 42 42 41 43 46 46 45 45 49 52 53 52 53 55 56 57 63 69 70 69 68 65 65 73 76 64 60 72 84 85 85 83 78 73 72 68 64 62 61 62 66 71 73 75 77 75 68 58 50 48 49 46
34 47 40 27 28 34 36 37 42 47 51 54 52 50 51 54 55 55 55 57 61 61 58 58 59 56 50 48 49 49 49 49 46 42 41 42 41 42 47 49 44 41 44 49 50 51 52 50 49 49 50 54 61 63 63 66 65 64 70 74 65 57 62 70 72 76 79 76 69 66 64 62 57 53 55 63 71 75 78 77 72 67 61 55 53 52 47
37 42 33 26 30 35 40 44 43 41 45 48 46 45 47 50 51 52 51 52 55 57 56 58 59 55 51 52 54 53 50 47 45 43 42 41 41 43 46 46 41 41 46 50 49 48 47 45 45 47 47 50 56 60 60 61 63 60 61 67 69 66 63 59 54 56 63 64 61 61 66 68 62 52 49 57 66 69 70 70 68 64 58 53 50 46 41
33 33 26 26 31 36 42 45 40 36 39 41 38 38 41 43 46 48 46 46 50 52 53 58 61 57 53 54 54 51 49 47 44 42 42 41 42 43 43 43 42 43 48 52 53 51 48 45 46 49 49 50 54 57 57 58 56 47 42 52 66 69 62 53 49 52 57 60 63 67 70 69 63 54 51 56 63 66 70 73 71 63 54 49 46 43 42
32 32 26 24 28 34 41 41 34 30 32 32 31 34 37 39 43 47 47 49 53 53 54 60 63 58 55 56 54 52 52 48 43 42 43 44 43 42 42 45 47 47 48 51 51 50 49 48 46 47 50 54 57 58 56 55 48 35 26 33 45 49 49 52 56 58 60 61 60 59 58 55 53 53 57 61 64 68 70 67 60 52 47 44 43 43 44
36 33 25 24 28 32 35 33 30 32 37 38 37 39 42 43 47 51 51 54 58 58 58 63 64 60 58 57 54 54 56 52 45 42 44 44 42 41 42 45 49 49 48 47 45 43 45 46 44 45 51 57 58 56 54 55 52 45 37 36 39 44 51 56 56 56 61 64 60 56 56 54 51 53 59 61 58 58 58 53 46 43 44 43 43 43 42
42 36 25 24 28 28 28 32 40 48 54 53 50 49 48 49 51 52 52 55 60 61 60 62 61 58 57 53 49 51 56 54 46 42 43 42 42 43 45 47 49 48 46 45 42 39 41 42 42 45 51 55 55 54 55 59 61 58 52 50 53 59 61 61 61 65 71 70 63 59 58 55 50 51 58 60 55 52 51 49 43 39 38 38 37 35 32
40 34 24 21 25 28 33 40 49 55 59 58 56 52 50 50 52 53 53 54 58 59 58 59 58 57 54 50 47 49 52 49 44 42 42 41 42 43 45 47 46 43 41 40 39 39 41 43 43 44 48 51 54 57 62 65 66 62 57 58 66 70 68 65 68 72 71 66 60 56 51 49 49 50 49 46 46 48 49 47 40 33 29 27 26 26 27
33 30 22 19 26 36 43 45 46 51 56 59 60 57 54 53 54 56 55 54 55 58 60 61 61 58 53 49 49 50 49 46 44 44 42 41 42 43 43 42 39 36 34 36 39 42 44 44 43 46 50 53 57 63 66 66 67 67 66 67 70 72 70 66 65 63 60 57 54 50 45 44 46 46 42 42 48 53 52 43 33 29 30 33 34 33 33
28 25 21 23 34 45 48 47 48 51 55 59 61 60 58 57 58 59 58 56 58 60 61 61 60 57 52 51 53 54 51 49 48 46 43 42 42 41 37 34 32 31 33 37 41 44 44 42 43 48 53 57 62 67 67 66 67 70 73 74 76 76 73 69 66 62 57 50 44 43 43 41 38 39 44 48 50 49 43 36 32 34 40 42 41 38 35
22 21 24 32 42 48 48 48 50 50 51 53 57 57 56 56 59 61 60 60 62 63 61 57 55 54 53 53 54 54 52 50 49 47 44 42 39 35 31 30 29 30 34 39 43 44 44 45 49 53 56 59 63 66 65 65 68 71 74 77 77 72 67 63 59 55 52 46 41 42 43 41 39 45 53 52 44 37 35 37 42 45 44 40 38 38 37
Wind_Speed
8 8 8 9 9 8 9 11 12 12 13 15 16 18 18 17 17 16 16 16 17 18 19 19 19 19 15 9 5 3 6 2 1 5 7 6 6 8 9 9 9 13 15 14 14 15 15 13 14 15 14 14 11 7 9 10 9 5 5 12 16 16 16 14 9 11 11 10 7 4 3 5 7 6 7 6 4 3 4 5 6 8 6 7 7 4 5
7 8 9 9 9 9 10 10 10 11 13 16 19 20 20 20 18 16 15 16 17 17 18 18 17 16 12 6 4 7 5 2 3 4 5 6 6 8 10 9 7 11 13 14 13 12 12 12 12 11 10 10 7 4 6 9 10 8 6 10 14 12 12 12 8 7 7 7 5 2 1 3 5 5 4 4 5 4 3 4 4 4 4 6 5 4 7
7 8 9 9 9 9 9 9 9 11 12 16 20 21 20 20 19 15 15 17 18 16 15 16 14 12 9 6 5 7 5 6 5 3 4 6 6 7 11 9 6 8 11 14 14 13 13 13 12 11 10 9 6 2 4 6 8 8 7 9 11 9 8 8 5 4 4 3 3 2 2 1 4 5 4 3 3 2 2 4 4 4 5 6 7 11 14
7 9 9 10 9 9 9 8 9 11 12 16 19 18 19 22 19 14 15 17 17 15 14 14 12 10 8 7 7 6 6 6 5 3 6 9 8 8 10 8 7 6 7 11 14 13 12 12 12 12 11 10 8 5 2 3 4 5 7 9 10 11 9 6 4 7 9 8 5 3 4 2 1 1 4 4 3 3 0 3 3 7 9 8 10 18 20
8 9 9 10 9 9 9 8 9 11 13 17 19 17 19 22 18 17 17 17 15 14 14 12 11 10 10 9 8 6 4 4 3 5 8 10 9 8 9 8 7 5 5 7 10 11 11 12 13 13 11 11 10 7 5 5 5 5 7 8 9 12 12 8 7 11 12 9 8 4 4 2 1 3 4 3 4 3 3 4 5 10 10 9 14 22 21
8 9 10 10 9 8 8 7 10 12 13 18 20 18 18 19 18 20 19 16 15 15 14 13 11 11 11 9 7 6 3 4 5 7 8 8 8 8 9 9 8 7 6 6 8 11 13 17 16 13 11 10 9 8 7 7 7 5 6 7 9 13 14 12 10 12 10 7 6 4 2 3 4 3 2 1 2 2 4 6 10 13 9 10 20 24 20
8 9 9 9 8 8 8 8 11 13 14 18 19 14 16 19 20 20 18 17 16 14 14 15 12 12 12 9 7 6 4 3 4 6 7 7 9 9 9 7 5 7 7 5 7 11 15 19 18 14 12 10 7 7 7 7 7 5 6 9 10 12 14 13 12 13 10 6 6 4 4 5 5 7 6 2 1 2 3 6 10 10 10 15 23 24 18
8 9 8 8 7 8 8 9 12 12 15 18 16 13 18 21 20 18 17 17 16 14 15 16 13 12 11 9 9 9 7 5 6 8 7 6 7 8 6 5 5 7 8 6 7 12 15 17 18 16 14 11 8 7 7 7 7 6 7 9 9 10 14 12 12 14 12 6 7 6 4 2 5 10 10 7 4 5 7 9 8 9 12 17 21 22 17
8 8 8 7 8 8 8 10 11 13 16 17 15 16 20 21 18 16 15 17 19 19 18 15 12 10 10 10 12 12 9 8 10 12 10 7 8 7 4 3 5 7 7 8 9 12 13 14 14 14 14 14 11 9 8 7 6 6 7 8 7 11 15 12 11 13 14 7 7 8 7 6 7 11 11 8 7 6 7 8 7 8 12 13 14 15 13
8 8 7 8 9 8 9 10 11 13 17 16 17 19 20 19 18 16 16 19 21 19 14 11 10 10 10 12 12 11 11 9 10 11 12 9 7 6 4 3 4 6 8 9 10 10 9 8 9 11 12 13 11 10 10 9 7 5 5 7 7 9 13 13 10 12 15 10 7 9 10 7 6 8 7 5 4 4 4 6 6 8 10 10 11 12 11
8 8 8 9 9 9 11 11 12 15 17 15 20 22 20 18 19 19 20 19 18 16 13 12 13 12 11 10 11 11 12 12 10 9 12 11 7 4 4 4 5 7 8 8 9 8 6 5 8 11 12 12 12 12 12 11 7 3 3 6 8 8 11 12 11 12 16 14 11 11 8 4 4 6 6 4 2 1 2 6 8 8 9 9 10 10 9
8 8 9 10 10 11 12 12 14 16 14 12 21 25 22 18 17 17 18 17 16 16 15 15 13 12 11 10 10 11 11 11 9 8 11 13 10 7 6 6 7 7 6 6 8 7 5 5 11 14 12 10 13 13 10 8 6 5 6 6 6 8 11 11 10 13 16 15 13 7 3 3 7 8 6 3 0 1 2 5 8 8 9 9 9 8 7
8 9 10 10 10 12 13 15 17 15 11 14 25 26 20 17 15 16 17 18 18 16 15 15 13 12 12 11 9 10 11 9 7 7 9 11 11 10 8 8 7 7 7 6 6 5 5 7 13 17 15 11 11 10 7 7 8 10 9 7 4 6 8 10 11 13 13 12 8 4 5 10 12 11 9 7 4 2 2 4 6 9 9 8 8 8 8
9 10 10 11 11 13 15 18 18 14 12 20 25 21 17 16 16 18 19 21 21 18 17 18 15 13 14 12 8 9 10 9 8 8 7 8 8 7 7 8 8 6 7 8 7 6 9 13 15 18 16 11 9 8 8 10 11 11 11 8 6 5 5 9 11 9 9 10 10 9 11 12 12 13 12 10 8 6 5 4 6 9 8 8 9 9 8
10 11 11 11 12 14 17 20 20 16 17 21 21 18 17 17 17 19 20 22 23 20 18 18 16 13 13 12 9 9 9 9 10 8 4 3 2 2 2 5 7 6 8 11 12 13 15 15 15 15 12 9 9 9 8 8 8 9 9 9 9 7 6 9 9 6 9 13 13 10 7 7 12 16 13 11 10 8 6 5 6 8 9 9 10 10 10
11 12 12 12 13 14 18 22 21 18 18 18 17 16 16 16 18 19 20 22 22 19 15 13 12 11 11 12 13 13 13 13 12 9 6 6 7 8 9 11 12 12 15 16 16 15 14 14 14 12 8 8 10 10 8 7 6 6 7 8 9 8 7 8 8 8 12 14 11 6 4 7 14 17 13 12 13 10 6 5 6 8 9 10 11 11 11
11 12 11 11 12 15 19 22 21 19 18 17 16 16 15 16 18 19 19 19 20 18 14 10 10 11 13 14 13 13 14 14 13 12 11 12 14 13 14 16 14 13 14 14 13 12 11 12 13 12 9 8 10 9 8 7 6 5 5 4 6 7 7 10 11 11 12 12 10 7 5 8 14 16 12 12 13 11 7 4 5 8 8 8 11 11 10
10 11 10 10 11 14 19 23 21 19 18 17 16 16 15 16 18 18 17 17 17 17 15 12 10 11 14 15 13 13 13 12 12 13 12 13 12 10 11 13 11 9 11 11 10 10 11 11 11 12 10 8 7 7 7 6 5 5 5 5 5 7 9 11 12 11 12 12 10 8 5 8 12 12 10 10 12 12 10 6 5 6 5 4 6 6 6
9 9 10 10 11 14 19 23 22 19 19 18 17 16 16 16 17 18 17 16 16 16 16 14 10 9 13 15 13 13 13 12 12 13 13 12 10 8 7 8 8 8 9 9 10 11 12 12 11 10 10 9 8 8 7 6 5 5 6 6 7 10 11 10 10 10 10 12 12 9 5 8 10 10 11 13 12 11 9 7 5 4 3 4 6 5 5
8 9 10 12 12 14 19 23 22 20 20 19 17 15 14 14 15 15 13 11 12 13 15 15 10 6 9 12 13 14 13 12 12 14 14 13 10 7 7 7 7 8 8 8 11 13 13 13 12 10 10 11 10 9 8 8 6 4 6 7 8 9 11 12 12 11 11 12 11 7 5 9 12 11 13 14 11 8 7 6 4 3 4 5 6 7 7
9 10 12 13 14 16 20 23 23 21 20 20 18 15 14 13 13 11 7 4 7 12 14 14 9 4 7 12 14 13 12 11 11 13 13 11 9 7 7 6 6 7 7 9 12 13 12 12 11 11 11 11 9 7 8 10 9 7 6 8 8 8 10 13 14 12 10 10 9 6 7 12 15 12 11 11 9 7 7 6 5 5 7 7 7 10 11
10 11 13 15 16 18 20 23 24 22 21 20 18 16 14 13 12 10 4 2 6 12 13 11 8 7 11 13 13 12 10 10 10 10 9 8 7 5 5 5 6 6 7 9 12 13 14 14 14 14 13 10 9 8 8 9 9 9 8 7 7 7 8 10 11 11 11 11 11 10 11 13 14 12 10 10 11 11 10 9 8 9 10 11 11 13 14
12 13 14 16 17 18 20 22 24 23 21 20 19 17 15 13 12 9 3 2 6 12 12 10 9 11 13 13 12 12 11 9 8 7 6 5 5 7 8 9 10 10 10 11 12 14 16 17 17 17 15 13 12 11 10 10 10 10 10 10 9 9 8 10 13 15 16 15 15 14 14 13 13 13 13 13 14 13 12 11 11 11 13 14 15 16 17
14 14 15 16 17 18 20 22 23 22 21 20 19 18 16 14 12 7 2 3 8 12 13 12 12 13 14 13 13 13 11 9 9 8 7 5 6 11 14 14 15 16 14 13 13 13 15 17 15 15 16 15 12 12 15 16 15 14 16 17 16 14 13 15 18 21 21 20 18 17 18 18 17 17 17 16 15 15 13 12 11 12 14 15 15 15 15
15 15 15 16 17 18 19 20 21 21 21 20 20 19 16 14 12 8 4 6 9 11 13 15 14 14 14 14 14 13 12 11 10 9 9 9 9 12 14 14 15 15 14 13 12 10 12 14 12 12 14 13 11 13 16 18 18 17 18 19 18 16 16 18 20 21 22 22 21 19 19 19 18 17 17 16 15 15 13 12 11 11 12 13 13 13 13
15 15 15 16 17 18 18 19 19 20 20 19 19 17 16 15 13 9 7 8 10 11 14 17 17 15 15 15 15 14 12 11 9 8 10 12 11 11 12 12 12 13 13 13 11 9 10 12 10 11 15 14 14 16 17 17 17 17 16 17 16 14 16 18 20 22 24 22 19 17 18 18 16 14 14 14 12 11 11 11 10 10 10 10 11 11 11
16 16 16 17 17 18 18 18 18 18 18 17 16 15 15 15 13 10 8 10 12 13 15 17 17 16 15 15 16 16 13 10 9 9 11 12 11 11 11 10 11 12 11 11 11 10 9 10 9 11 16 18 19 21 21 19 18 17 15 14 11 11 14 17 19 22 22 19 15 12 12 15 15 12 11 11 10 8 8 9 9 10 10 10 10 9 9
17 17 17 18 18 18 18 18 17 17 16 15 15 15 15 14 12 10 10 10 11 13 16 17 17 16 16 16 16 15 13 12 11 11 12 12 11 11 10 9 10 11 9 8 10 11 10 10 10 11 14 15 16 20 22 21 20 20 18 14 10 9 12 15 18 20 21 18 15 10 8 13 16 13 11 11 10 9 9 9 9 10 10 11 11 10 9
16 17 17 18 18 18 17 17 16 16 16 16 15 15 15 13 11 11 11 10 10 12 15 17 18 18 18 18 16 15 14 14 13 12 12 11 9 9 10 11 11 9 6 6 10 12 12 11 9 9 9 7 10 16 18 18 20 20 16 13 12 12 11 12 14 18 19 17 14 11 11 15 18 16 13 13 13 13 14 14 13 14 14 15 15 15 14
16 16 17 17 17 17 17 16 16 16 17 17 17 17 14 12 10 11 11 11 10 11 13 16 18 19 21 20 18 16 16 15 13 11 10 10 8 8 10 12 11 8 7 8 12 14 15 13 10 9 6 2 6 14 17 16 20 19 12 8 10 10 9 7 7 10 14 15 13 12 13 16 18 18 17 16 16 16 16 16 17 17 18 18 18 18 17
15 16 16 16 17 17 18 17 17 18 18 19 18 16 14 12 11 11 11 11 12 11 11 15 18 20 21 21 19 17 15 14 12 10 8 9 10 10 11 12 11 9 9 12 13 14 14 13 12 11 8 2 4 12 14 15 20 20 11 6 7 6 6 7 7 8 12 14 14 14 15 15 15 17 18 18 18 18 17 17 17 17 17 18 17 17 17
15 15 16 16 16 17 18 18 18 18 19 20 18 15 14 14 13 12 11 11 12 10 10 14 19 22 21 21 20 18 14 12 10 9 8 10 11 12 12 11 11 11 13 14 14 13 11 10 11 12 10 4 4 10 12 13 19 19 12 8 8 7 9 13 13 11 12 12 11 13 16 15 13 14 15 17 18 17 16 15 15 15 16 16 15 15 15
14 14 14 15 15 16 17 18 18 18 20 20 17 15 16 16 14 13 11 11 11 11 11 14 19 22 21 20 19 17 15 13 12 11 11 12 11 12 13 13 13 14 14 12 13 14 11 8 9 11 10 5 4 11 14 14 16 17 12 8 8 10 13 17 17 15 14 13 10 12 15 15 13 13 15 16 17 15 13 12 12 12 13 13 13 12 11
13 13 14 14 14 15 16 17 18 19 19 19 18 18 18 17 14 13 12 12 13 14 13 14 17 21 22 20 19 17 16 15 14 12 12 11 10 12 15 16 16 15 12 9 10 13 12 7 5 7 9 7 7 12 16 16 15 16 14 11 11 13 15 16 16 15 14 12 9 10 13 14 13 14 15 16 15 12 9 9 9 9 8 8 8 7 7
13 13 13 13 14 15 16 17 17 17 17 18 19 21 20 17 15 14 15 14 13 14 14 15 18 22 23 21 19 17 16 14 12 12 13 13 11 12 15 16 15 13 11 9 9 10 10 7 5 8 11 10 8 10 16 19 19 20 18 17 16 15 14 14 14 13 12 10 8 9 11 12 13 14 14 13 11 8 5 4 4 4 3 2 2 2 2
13 12 12 13 14 15 16 15 15 15 15 17 20 21 19 17 16 16 15 14 12 13 15 18 20 21 22 21 19 18 16 15 14 14 15 15 14 14 15 16 17 16 13 12 10 9 9 8 7 9 12 10 8 10 17 21 22 21 19 17 16 13 11 10 11 11 11 10 10 11 12 12 13 14 13 10 7 6 5 4 5 5 3 3 4 4 4
13 12 12 12 12 14 14 14 14 14 15 17 19 21 20 18 17 17 15 13 13 15 17 18 18 17 17 18 18 17 17 18 18 17 17 17 17 15 14 15 18 18 15 14 12 11 10 9 8 9 11 11 11 14 16 17 18 19 18 17 14 10 6 7 11 13 13 13 13 13 13 11 11 12 9 5 2 4 5 6 5 5 5 4 3 3 4
12 12 11 11 12 13 13 13 14 15 17 18 20 22 21 19 18 17 14 13 14 15 15 15 15 14 13 15 17 17 17 19 19 18 18 18 17 15 14 15 16 16 15 14 12 12 12 10 9 11 14 13 13 15 15 15 15 15 15 14 11 7 7 10 13 13 13 12 13 13 11 9 9 9 5 1 0 1 4 7 7 5 3 3 3 3 3
13 12 11 12 13 14 14 15 16 17 19 21 23 22 21 19 18 17 15 14 14 14 12 13 14 12 11 13 15 15 16 18 18 17 17 18 17 16 15 16 16 15 15 15 13 13 13 12 11 12 15 15 14 14 14 14 14 13 12 11 10 9 10 12 11 9 9 9 10 10 9 6 5 4 4 3 2 3 4 5 5 4 3 3 4 4 3
12 12 11 10 12 14 17 19 20 20 21 22 22 20 18 18 18 18 16 15 14 13 12 13 14 12 9 9 10 13 17 17 15 14 16 17 17 17 16 15 16 15 15 16 15 14 13 14 14 15 16 16 15 14 13 14 14 13 13 12 11 9 10 12 10 7 6 6 8 10 10 8 8 8 8 6 5 4 3 3 4 6 6 5 4 4 3
11 11 10 10 12 16 20 22 23 22 22 21 20 18 18 18 19 19 16 14 14 14 14 15 15 12 9 10 12 15 19 17 13 13 14 15 16 16 15 15 15 15 15 17 16 14 12 13 14 15 16 18 18 17 15 15 14 13 14 14 12 9 9 11 11 8 7 7 10 11 11 12 12 11 10 9 9 8 7 7 8 9 8 6 4 3 3
11 9 9 11 15 19 22 23 24 23 22 21 19 18 18 18 19 19 17 15 15 15 16 15 13 10 10 13 16 17 17 16 14 14 15 15 15 15 15 15 14 13 14 16 16 14 13 14 15 16 17 18 18 17 15 14 12 13 14 15 13 11 10 11 12 12 11 12 13 13 13 12 12 11 11 11 12 11 10 10 11 11 9 7 5 4 5
11 9 10 14 18 21 22 23 23 22 20 19 18 18 18 19 20 19 16 16 17 16 15 15 13 11 12 16 18 16 14 15 15 15 14 15 15 15 15 15 13 11 13 16 17 15 15 15 15 14 15 16 15 15 14 14 13 13 15 16 16 14 12 12 12 13 14 14 15 14 12 9 9 10 10 11 12 12 11 11 11 10 10 8 6 5 6
11 11 12 16 20 21 19 19 20 19 17 17 19 18 18 21 23 21 17 16 17 16 14 13 12 11 13 17 18 16 14 14 15 15 15 16 16 15 16 15 13 11 13 16 16 15 14 13 11 11 13 16 16 15 14 15 15 15 17 20 20 18 16 14 13 13 14 15 14 13 11 10 10 10 10 11 12 12 12 11 11 11 10 9 7 6 6
12 11 13 17 21 19 16 16 17 17 15 17 18 16 17 21 23 19 14 14 15 15 14 13 11 11 13 16 17 16 15 14 13 14 16 17 16 15 15 14 13 13 16 17 16 15 14 13 12 12 14 15 15 15 14 15 17 19 20 22 23 23 21 19 16 15 15 15 15 14 14 13 12 11 10 10 11 11 11 11 12 12 10 9 8 7 7
13 12 14 17 19 18 15 13 14 13 12 14 14 11 12 17 18 13 10 11 13 13 13 12 12 11 12 14 15 15 15 14 12 13 16 17 16 14 15 15 14 15 17 18 18 17 16 13 12 12 12 13 14 14 11 12 15 19 22 22 23 22 20 18 16 14 15 15 14 13 13 11 11 11 11 10 10 11 12 12 11 11 10 9 9 8 8
14 13 13 14 16 16 13 11 12 12 13 14 14 13 13 15 15 11 9 10 12 12 13 13 12 11 11 12 13 15 16 15 13 13 15 17 15 14 14 15 16 17 18 19 20 19 17 14 12 12 12 13 14 12 8 7 10 14 16 18 19 18 16 14 13 12 12 11 10 9 9 9 9 10 9 9 10 10 10 9 8 7 7 8 8 8 8
15 15 14 13 13 12 11 12 15 17 17 17 17 16 15 15 15 14 12 10 11 13 12 12 12 12 10 10 13 15 16 16 14 14 15 16 16 15 14 15 16 17 19 20 20 19 15 12 11 11 12 13 13 10 6 6 8 8 10 12 14 14 14 13 13 13 13 12 11 10 9 9 8 8 8 9 10 9 8 7 6 6 6 7 7 8 8
17 16 15 14 12 13 15 18 18 17 16 17 17 17 16 16 16 16 13 11 12 12 9 8 10 12 11 11 13 15 15 16 15 15 16 17 16 15 15 15 16 17 19 19 18 16 13 11 10 11 11 12 11 8 6 7 7 7 8 10 11 12 11 11 12 13 15 14 13 11 9 8 8 9 9 9 9 8 8 8 8 7 7 7 7 8 9
18 16 15 15 16 18 20 19 16 14 14 15 16 15 15 15 16 15 12 11 13 14 11 9 10 12 13 13 13 13 13 14 15 16 16 17 16 16 17 17 17 16 16 17 17 15 13 11 11 11 12 11 10 8 9 9 9 9 9 9 9 9 9 9 9 11 13 13 12 10 8 8 9 10 9 8 8 8 9 9 9 8 7 7 7 7 7
18 16 16 17 20 21 19 16 14 14 13 13 14 15 14 14 15 15 13 13 16 16 13 11 12 15 15 15 14 12 12 13 14 15 16 17 17 17 17 17 15 13 14 17 17 14 11 9 9 10 11 11 11 11 11 10 9 9 9 9 9 10 11 11 11 12 12 12 10 9 8 9 9 8 8 8 8 9 9 9 8 6 4 5 5 5 5
18 16 18 21 23 20 16 15 15 15 12 10 12 14 14 13 15 15 14 15 16 15 13 13 15 16 15 15 14 13 11 12 15 16 17 17 17 15 11 10 11 13 15 18 17 13 9 8 9 9 9 10 11 11 10 10 9 10 11 11 13 15 15 13 13 12 11 9 7 6 7 7 6 6 7 9 9 9 8 8 7 5 4 5 5 5 6
Wind_Direction
169 173 171 166 164 163 167 171 171 169 173 177 174 168 168 164 156 152 155 159 161 166 173 177 184 187 177 167 168 65 34 360 37 82 108 121 110 108 112 108 79 61 72 98 122 118 104 108 124 131 147 166 174 190 215 227 236 228 167 160 170 180 189 185 138 117 125 116 116 118 112 164 163 124 102 88 69 97 122 126 124 115 117 131 121 108 150
168 170 168 164 163 164 169 173 168 165 171 175 172 171 168 158 151 149 150 157 161 165 174 182 189 185 171 161 131 79 66 167 137 85 102 123 115 104 114 123 86 68 83 95 106 115 106 101 109 116 135 151 158 190 219 233 239 227 189 167 168 169 178 175 141 124 152 157 171 192 103 148 137 95 87 95 81 74 95 125 134 109 123 148 137 126 155
163 164 165 162 163 164 166 168 160 159 168 173 173 173 164 150 144 147 153 160 162 162 171 180 183 175 158 140 110 99 125 145 116 93 107 119 141 119 105 125 128 93 94 95 97 109 114 110 109 116 125 123 113 147 212 230 232 216 194 180 177 176 175 173 153 120 133 154 185 231 312 74 103 69 22 48 81 43 79 153 163 141 149 160 147 140 153
156 159 160 159 160 159 162 166 159 159 165 170 174 172 157 147 146 153 159 159 156 156 162 168 165 156 143 130 113 111 147 144 102 128 131 116 141 137 105 122 148 126 111 102 92 93 106 115 118 121 125 118 103 89 110 183 199 196 185 176 179 179 166 161 150 112 101 99 116 179 264 282 141 296 316 329 330 330 171 181 178 156 152 143 149 159 164
151 154 154 155 158 157 165 169 159 162 165 166 173 169 151 148 152 156 155 151 149 152 153 152 149 144 137 134 125 106 139 162 123 133 137 127 141 139 105 110 130 132 136 113 86 81 102 122 123 120 120 119 116 105 100 128 131 141 167 171 179 170 145 128 130 115 104 106 119 158 244 251 212 260 281 284 289 282 235 227 185 164 152 129 153 172 175
145 147 148 153 157 159 168 166 157 164 166 168 176 168 148 149 156 154 150 147 147 149 147 146 145 143 139 136 126 106 132 179 156 133 127 120 133 135 114 109 115 119 133 129 100 91 108 123 123 120 122 125 134 127 101 93 101 116 145 145 155 155 134 121 127 119 114 135 141 136 145 133 139 148 147 220 247 241 240 217 184 179 182 167 173 183 185
138 142 147 151 156 160 165 162 160 166 169 174 179 162 141 150 155 150 148 145 140 141 149 155 151 142 139 134 119 114 135 173 172 162 145 113 114 127 126 116 109 116 129 145 127 111 116 124 122 122 126 125 129 122 90 72 76 88 130 139 145 139 123 125 136 122 111 143 164 146 117 113 126 129 119 108 151 153 157 169 176 182 184 180 183 187 185
136 140 145 147 154 159 160 163 166 168 171 176 174 146 140 152 152 147 150 143 132 132 145 148 140 134 136 129 115 114 120 128 138 152 157 138 132 140 134 112 104 119 141 159 134 121 129 131 124 125 130 123 113 106 89 83 84 85 112 136 156 144 124 134 154 134 114 141 181 169 152 140 136 132 127 125 132 132 128 130 136 147 157 170 182 186 184
134 138 142 144 151 155 158 164 166 166 173 176 162 143 145 150 147 146 150 142 129 128 133 129 125 135 136 127 126 122 118 134 142 130 124 140 156 152 129 112 118 130 154 167 140 125 137 143 136 135 133 119 109 106 102 99 100 103 107 117 146 147 133 142 163 139 124 149 185 175 177 179 149 135 132 134 146 150 147 141 134 143 155 168 185 190 188
132 137 139 142 148 150 153 160 160 165 175 166 142 139 147 148 144 140 138 134 127 126 130 123 124 143 142 134 142 136 124 148 172 145 123 131 153 146 133 140 138 134 151 166 150 130 132 146 145 143 137 125 115 110 112 113 107 103 107 108 118 136 139 147 157 138 132 147 165 161 164 161 131 118 112 115 137 146 150 148 142 152 166 181 197 196 192
132 136 137 140 144 143 147 156 156 163 173 154 130 136 144 141 138 136 134 133 130 130 134 128 128 143 148 145 156 154 138 147 172 166 147 152 170 177 172 180 169 152 150 152 143 128 117 137 150 145 141 144 143 135 133 138 134 125 131 118 111 124 143 154 158 146 144 153 159 155 153 141 115 115 107 97 105 171 168 147 142 154 170 182 191 191 191
130 132 134 136 138 139 144 150 150 161 175 145 123 130 133 126 127 135 137 136 132 131 130 128 134 149 156 155 159 164 162 160 163 171 169 172 187 207 205 198 189 180 167 151 145 140 128 146 156 149 142 154 162 156 153 159 158 158 162 149 131 132 138 144 145 143 148 158 162 154 124 128 140 140 139 139 118 279 187 145 143 158 171 179 188 197 210
127 128 131 133 135 138 142 143 146 160 168 129 119 122 121 112 115 125 129 130 131 131 128 132 148 161 161 161 155 149 158 165 165 179 189 191 198 208 213 212 207 213 218 204 196 194 167 153 153 144 135 143 158 150 133 137 146 149 155 164 172 151 137 131 130 135 147 156 158 154 140 143 146 150 160 169 176 184 163 141 144 153 166 186 200 211 226
126 128 131 132 135 138 141 143 145 147 132 118 115 113 108 106 113 120 124 126 127 130 132 137 151 165 168 169 159 142 151 162 162 164 176 185 186 189 200 207 210 227 232 214 204 189 160 150 150 148 142 145 154 139 121 124 135 146 151 156 171 179 162 150 143 146 155 139 117 124 140 148 158 164 162 168 184 196 194 189 177 170 180 209 224 233 245
125 129 131 130 135 139 141 144 144 136 124 119 113 106 103 109 119 125 127 127 129 135 138 138 147 165 174 168 148 130 138 156 159 152 141 145 142 83 131 178 175 153 146 152 152 149 147 144 146 151 151 148 143 140 140 134 134 153 165 169 178 185 182 173 167 172 170 143 118 123 152 172 184 186 181 181 197 208 202 204 207 196 198 217 231 245 254
123 127 128 128 135 141 142 145 144 137 133 128 114 106 109 116 125 130 131 132 137 137 133 138 157 175 176 157 133 116 116 128 140 139 120 101 84 75 95 122 136 140 140 142 142 142 144 144 146 146 139 134 135 139 151 149 139 162 180 185 193 199 206 202 191 180 177 161 136 141 196 195 193 201 205 202 207 211 195 199 222 212 207 218 227 235 246
122 125 126 129 136 142 145 146 144 141 141 134 118 113 119 125 132 137 137 139 143 136 128 146 174 175 164 151 136 128 126 124 126 127 115 99 90 92 109 121 131 145 146 140 141 145 142 142 149 147 129 129 140 142 150 152 142 153 166 174 201 208 205 200 187 174 178 171 143 140 183 196 198 204 203 199 202 197 181 190 216 207 211 224 223 225 232
126 128 132 137 140 144 148 149 146 144 145 138 126 125 131 135 141 145 144 147 150 142 136 149 163 161 160 156 147 142 136 127 129 130 120 108 102 104 120 127 130 142 145 141 145 148 138 133 145 148 136 137 154 152 154 163 160 158 152 146 167 173 168 177 177 168 174 172 146 135 170 190 191 192 186 182 184 185 189 202 198 196 213 209 193 198 204
136 137 142 148 149 150 153 152 149 147 147 143 137 135 139 143 149 155 155 157 160 154 148 151 154 157 164 162 156 153 145 138 143 143 134 128 123 119 130 133 126 124 129 138 145 142 133 126 130 137 139 148 160 157 156 166 176 179 167 152 154 151 145 155 163 157 161 162 144 128 145 170 173 176 177 174 177 189 204 207 191 189 194 158 143 144 159
148 149 152 157 157 155 157 157 154 151 150 150 147 143 143 148 155 159 157 161 172 170 163 162 161 159 164 163 162 161 153 144 149 152 146 139 131 131 144 141 128 123 125 138 146 140 131 126 123 120 124 134 141 141 141 140 137 155 167 164 163 155 145 147 152 147 144 143 137 130 155 165 162 165 172 175 181 194 196 185 178 164 131 125 136 149 152
156 155 157 161 162 159 159 160 160 157 156 156 154 149 148 151 155 157 154 163 184 182 177 179 187 183 161 160 161 161 155 150 154 159 157 151 145 152 159 146 135 140 146 152 151 141 132 132 129 120 121 127 127 126 134 132 119 111 131 151 159 155 149 150 153 155 152 144 140 156 172 165 162 167 179 184 180 170 160 150 139 122 110 111 136 152 147
154 155 158 162 162 161 159 161 163 162 162 163 160 156 155 158 160 163 156 138 170 174 175 182 185 164 153 158 161 159 153 152 158 162 164 163 153 143 143 145 145 144 148 155 153 141 132 129 123 117 116 115 108 111 131 140 130 120 124 136 142 143 153 161 159 156 153 142 134 139 151 159 165 171 178 175 156 140 130 119 111 111 112 116 128 133 129
150 153 157 160 162 162 160 162 165 166 167 169 168 164 165 170 173 172 155 109 155 160 154 150 148 144 147 155 160 156 150 149 150 148 155 173 156 123 118 132 133 122 122 135 140 134 126 119 114 111 106 97 91 98 113 127 129 125 123 122 119 124 146 161 150 137 126 115 112 119 128 137 147 149 147 144 136 124 114 110 112 117 120 123 125 124 122
149 151 154 158 161 162 162 163 166 168 171 174 175 175 179 182 181 178 154 132 151 147 135 130 137 141 145 152 155 152 149 146 140 133 133 149 147 130 127 129 126 121 120 124 128 129 122 115 112 112 105 98 91 90 100 113 118 119 122 121 117 121 135 142 139 134 124 110 108 117 121 121 125 126 123 121 116 110 109 114 121 124 124 123 121 118 118
147 149 153 157 160 163 165 165 167 170 174 178 180 183 188 190 187 188 177 147 143 138 129 126 128 133 140 149 153 151 149 145 139 134 132 136 141 138 131 129 128 129 129 127 128 132 125 117 118 117 111 110 110 102 104 112 117 119 123 124 121 125 131 130 131 131 124 116 116 120 120 118 118 118 117 117 115 115 118 121 121 120 119 116 112 110 110
145 146 150 154 158 162 165 166 169 173 177 180 182 185 190 193 192 194 185 152 137 134 133 128 123 125 133 142 146 145 143 140 136 135 136 138 143 141 134 132 135 136 135 134 140 149 138 126 124 117 112 115 120 117 113 115 119 122 123 121 123 130 134 135 136 130 122 120 123 126 124 121 119 118 120 120 119 122 125 122 117 111 106 105 105 106 108
144 144 147 152 156 159 162 165 169 174 178 180 181 181 185 190 190 188 176 153 138 137 138 133 128 128 133 138 140 138 137 137 138 140 139 138 139 138 134 134 139 142 140 139 147 158 149 135 127 120 118 120 118 114 112 111 112 113 112 113 124 139 141 143 142 131 122 121 123 127 134 129 122 121 126 122 117 120 121 118 114 108 100 97 97 99 103
147 146 147 150 153 156 159 162 166 169 172 173 175 176 179 182 180 171 159 151 148 150 145 136 131 130 131 131 133 136 138 141 143 144 141 139 140 142 140 136 141 149 151 144 150 162 156 138 127 124 129 130 120 112 112 110 104 99 97 99 109 122 130 139 139 129 124 121 116 119 143 134 122 121 126 121 115 112 109 106 105 103 101 99 97 96 99
149 148 147 148 150 152 155 158 159 161 163 164 167 171 170 168 166 158 150 149 158 161 150 137 131 131 130 128 130 136 141 144 148 149 146 142 139 139 145 151 156 164 171 153 150 153 144 129 121 119 127 140 130 120 117 110 102 98 97 100 104 103 108 126 135 130 125 119 114 122 137 129 120 118 120 117 113 110 107 105 103 101 99 96 93 91 91
148 150 149 148 149 150 150 151 151 153 157 159 161 163 160 158 156 150 144 146 155 158 152 142 133 130 130 129 131 138 142 147 155 156 150 149 144 136 143 154 158 165 172 157 146 142 135 128 124 118 114 144 154 137 128 114 107 107 105 104 104 100 99 108 119 122 122 120 123 128 126 119 114 109 104 101 101 99 97 97 97 95 92 89 87 84 83
145 148 149 150 151 151 150 151 152 154 157 159 160 159 156 153 151 146 144 146 148 151 152 144 132 128 131 133 134 138 144 151 160 162 153 151 151 146 147 149 145 148 160 156 145 138 133 127 119 113 109 115 165 149 142 128 119 120 127 128 113 107 110 109 104 111 121 126 128 121 107 97 94 95 95 94 91 87 85 88 92 95 96 96 94 90 86
145 147 149 151 152 152 153 156 159 161 162 162 162 162 160 156 152 150 149 148 144 147 156 148 134 127 131 136 138 142 148 152 155 151 132 125 133 144 153 156 152 151 156 153 141 131 124 116 111 112 111 113 166 158 150 135 125 128 139 143 125 119 122 120 118 118 115 112 111 108 101 92 87 90 94 95 89 82 78 79 84 91 94 91 86 81 76
146 148 149 151 152 153 156 158 159 160 161 162 165 166 163 158 154 152 150 146 141 145 158 157 142 132 132 137 139 142 149 149 146 138 122 114 122 136 144 150 152 150 151 148 136 125 121 120 120 117 109 103 150 153 144 133 131 137 144 141 130 130 127 121 119 118 113 105 99 103 108 110 105 96 93 92 88 81 73 64 62 68 76 75 71 67 62
145 146 148 150 152 155 158 158 157 156 157 161 167 167 162 158 157 151 144 140 139 141 153 162 151 138 133 134 134 138 144 148 149 147 138 131 132 133 135 144 151 149 147 144 131 125 126 128 124 116 114 121 145 146 136 132 138 147 152 152 148 143 132 120 114 108 102 97 94 99 107 109 104 98 96 94 91 86 76 63 58 59 64 69 67 67 71
143 144 147 150 153 156 158 157 156 157 159 163 166 165 161 159 159 151 143 140 138 139 150 161 155 143 137 136 135 135 138 142 150 151 141 134 130 127 132 140 144 141 142 144 136 130 130 128 117 116 124 136 154 149 138 137 142 148 152 152 147 137 123 116 114 105 95 94 102 108 107 105 103 104 104 102 103 108 106 97 103 110 97 68 25 17 86
146 147 150 153 157 160 161 160 160 163 165 166 166 164 162 161 157 152 147 144 140 141 150 156 154 149 145 144 142 138 135 138 144 143 135 131 129 129 134 136 129 123 127 133 133 130 131 133 132 126 126 136 151 144 139 141 144 144 143 140 130 117 105 108 117 113 106 107 110 105 101 101 106 109 109 107 118 141 154 161 169 185 215 260 288 284 260
148 149 151 154 159 161 162 165 168 167 167 167 166 163 160 157 155 152 149 144 140 141 145 149 151 153 154 151 146 142 142 145 145 141 137 136 135 136 139 136 126 119 119 120 121 123 126 131 136 127 120 123 128 127 130 139 142 140 135 129 122 114 111 127 134 129 121 118 115 107 103 105 111 116 117 114 129 160 177 195 211 232 260 275 278 269 257
149 150 150 150 152 154 158 165 165 162 162 163 161 159 157 157 158 157 153 147 143 143 146 150 151 153 158 157 150 146 150 155 154 149 146 147 145 143 145 143 135 130 127 125 128 131 128 126 129 127 122 121 122 122 126 133 136 134 131 130 133 147 153 145 144 141 133 127 123 119 116 117 120 126 136 148 35 177 204 219 231 247 264 267 261 256 248
154 152 149 150 153 155 155 155 153 154 158 160 160 161 162 162 162 160 155 150 149 150 153 157 155 151 157 162 158 155 160 165 164 160 159 159 155 153 154 154 151 147 142 143 152 156 146 138 139 138 134 133 134 134 136 138 138 138 143 151 165 170 151 139 138 137 131 129 130 130 135 146 158 184 218 228 212 210 217 221 232 255 286 297 287 277 270
161 156 151 154 160 160 156 151 147 149 156 160 162 165 165 162 160 160 156 153 154 154 153 154 152 152 164 185 185 173 167 167 170 172 173 169 164 163 165 165 162 158 154 157 168 176 168 159 156 153 150 152 155 156 158 159 157 156 160 170 182 175 150 142 145 142 140 153 159 159 170 198 230 249 248 232 221 230 234 226 244 272 292 298 282 259 249
168 162 158 160 160 155 152 150 148 149 155 159 161 162 163 162 161 161 157 154 154 155 154 153 153 153 168 192 196 180 169 166 170 176 176 172 169 171 173 171 166 164 165 169 177 188 187 176 170 167 167 169 172 174 177 179 178 173 170 174 184 183 163 157 163 171 180 191 193 195 209 231 248 255 247 232 229 239 246 249 258 271 282 285 266 241 241
167 163 163 162 156 153 152 153 153 154 157 158 158 160 164 165 165 164 161 158 157 158 159 160 160 159 167 178 182 177 169 166 170 175 177 177 174 172 174 175 174 175 175 176 180 188 189 185 182 181 180 180 182 185 188 191 194 192 185 185 192 196 187 177 181 193 203 208 214 222 233 242 249 249 241 232 231 236 241 248 256 264 271 275 274 271 277
166 166 168 164 161 159 159 159 160 160 162 164 166 166 166 167 169 169 166 162 161 163 167 170 171 170 170 174 178 179 175 172 174 178 181 181 177 172 173 179 185 186 181 179 183 190 194 196 197 194 188 188 192 196 200 204 208 208 206 206 207 208 204 201 205 213 221 228 233 236 238 240 246 247 238 229 230 235 241 248 256 263 270 274 273 269 271
173 175 172 167 166 167 166 165 167 170 174 177 177 173 170 172 174 174 174 173 172 174 179 183 182 178 175 177 180 182 181 180 180 182 183 183 181 178 179 184 188 185 179 180 187 195 198 201 206 204 195 193 197 204 211 218 223 224 221 219 218 217 218 222 227 230 232 235 238 241 242 247 254 253 239 227 226 232 238 248 257 265 271 272 266 260 263
185 184 176 171 171 171 171 173 179 185 189 189 187 186 185 181 177 174 177 183 184 184 187 190 187 181 179 181 184 187 188 186 184 185 186 186 184 183 184 187 188 183 179 183 192 200 201 199 199 199 198 196 198 205 215 224 229 228 222 217 216 218 220 222 223 224 226 230 236 242 247 252 255 250 236 226 229 235 241 250 260 268 272 271 264 262 269
193 190 182 178 177 176 176 181 188 190 187 181 177 175 175 173 169 162 161 169 173 179 187 191 190 185 184 186 188 192 195 192 187 186 190 191 189 187 187 186 184 185 187 191 197 206 210 208 202 199 199 199 199 204 215 223 222 219 214 212 212 214 215 214 215 217 220 222 226 231 235 238 237 232 227 227 234 243 250 257 264 270 271 266 260 261 272
196 193 187 185 184 184 182 178 170 159 148 144 140 136 142 154 157 152 148 155 165 173 180 184 188 191 196 198 197 197 199 198 193 192 195 195 193 190 189 187 189 194 199 203 206 210 213 212 207 201 197 195 199 209 222 215 200 201 207 212 215 215 216 220 228 230 227 225 226 229 231 230 227 224 227 236 244 252 262 270 271 264 256 252 253 261 272
195 194 192 190 187 181 168 154 145 137 131 131 136 142 150 158 160 158 157 167 178 180 180 185 192 196 199 201 197 194 196 198 197 197 197 195 191 189 190 195 201 207 210 212 214 214 211 209 206 198 191 194 205 221 227 198 183 192 206 210 210 213 220 229 235 237 237 240 242 241 240 237 232 228 232 242 249 256 267 273 268 257 250 253 261 266 267
194 195 194 188 176 160 151 148 145 139 135 136 141 150 158 162 161 160 164 178 186 183 180 189 198 198 194 189 186 187 193 198 199 198 198 196 194 194 197 202 210 214 214 214 212 209 206 206 206 199 196 203 213 217 203 193 201 215 215 204 201 208 218 224 228 231 235 239 241 239 233 228 225 226 232 240 249 255 259 261 263 268 273 277 275 267 258
195 194 190 179 163 154 153 153 151 152 154 152 147 148 156 164 168 168 170 177 182 181 180 184 191 194 193 188 182 186 196 203 203 204 205 204 203 207 211 216 219 219 215 209 204 200 199 201 200 197 200 206 207 199 197 207 222 231 227 218 216 222 229 233 233 232 232 233 234 232 226 220 223 229 237 246 255 258 259 265 276 286 288 281 272 262 257
194 192 184 171 161 158 157 155 149 150 158 163 161 160 167 178 184 182 179 178 181 187 195 197 192 191 193 192 189 191 199 204 209 213 216 215 216 219 224 227 228 223 212 205 201 197 194 195 198 201 204 203 198 199 210 225 235 235 230 230 236 242 248 251 248 244 241 237 229 217 212 218 224 226 230 239 247 250 254 268 285 292 276 251 248 255 265
193 187 178 171 165 162 160 157 152 149 151 166 178 181 188 197 199 195 192 189 188 194 203 202 195 193 197 200 202 205 208 210 213 218 221 223 225 227 229 227 221 213 207 203 200 195 189 192 200 206 206 202 201 210 224 236 237 232 231 237 246 250 250 248 243 238 236 235 226 213 216 225 227 223 230 242 249 249 248 257 269 264 238 226 241 261 274